Current weather by "City, St" or "zip code"  
 

Current Conditions: Clemson, Clemson-Oconee County Airport, SC

Mostly Cloudy


76.0 F

Last Updated on Oct 24 2020, 11:54 am EDT
Humidity: 69%
Wind Speed: N 0.0 mph
Barometer 30.04 in
Dewpoint: 64.9 F
Visibility: 10.00 mi
Precip: --
Heat Index: NA
Wind Chill: NA
Current conditions at:

Clemson, Clemson-Oconee County Airport, SC (KCEU)

Lat: 34.67222 Lon: 82.88139

Local Radar Image active severe weather and emergency alerts image image weather storm and storm spotter reports image weather observation monitoring service image
Local
Radar
Active
Alerts
Storm Reports Obs
Monitoring

Sign-up For Email & Text Message Weather Alert Notification Services



Advertise Here

Observation History for Clemson, Clemson-Oconee County Airport, SC


Time Wind
(mph)
Vis
(mi)
Weather Precip (in) Temperature (F) Relative
Humidity
Wind
Chill
(F)
Heat
Index
(F)
Pressure
Air Dwpt altimeter
(in)
sea level
(mb)
Rmks
11:54 am EDT N 0.0 10.00 Mostly Cloudy -- 76.0 64.9 69% NA NA 30.04 1016.5
10:54 am EDT SE 3.5 10.00 Fair -- 71.0 64.0 79% NA NA 30.05 1016.9
9:54 am EDT N 0.0 10.00 A Few Clouds Trace 68.0 64.0 87% NA NA 30.06 1017.3
8:54 am EDT N 0.0 0.75 Fog/Mist Trace 63.0 62.1 97% NA NA 30.06 1017.2
7:54 am EDT N 0.0 0.15 Fog -- 60.0 59.0 96% NA NA 30.06 1017.1
6:54 am EDT N 0.0 1.00 Fog/Mist -- 60.0 60.1 100% NA NA 30.06 1017.2
5:54 am EDT N 0.0 2.50 Fog/Mist -- 62.0 61.0 96% NA NA 30.06 1016.9
4:54 am EDT N 0.0 6.00 Fog/Mist -- 63.0 61.0 93% NA NA 30.05 1016.9
3:54 am EDT NW 3.5 7.00 Mostly Cloudy -- 62.0 61.0 96% NA NA 30.06 1017.0
2:54 am EDT N 0.0 7.00 Mostly Cloudy -- 64.0 63.0 96% NA NA 30.06 1017.1
1:54 am EDT N 0.0 8.00 A Few Clouds -- 64.0 62.1 93% NA NA 30.07 1017.4
12:54 am EDT N 0.0 8.00 Fair -- 65.0 64.0 97% NA NA 30.08 1017.8
11:54 pm EDT N 0.0 10.00 Fair -- 65.0 63.0 93% NA NA 30.09 1018.0
10:54 pm EDT N 4.6 10.00 Fair -- 66.0 64.0 93% NA NA 30.09 1018.0
9:54 pm EDT N 0.0 10.00 Fair -- 67.0 63.0 87% NA NA 30.08 1017.9
8:54 pm EDT N 0.0 10.00 Fair -- 68.0 63.0 84% NA NA 30.07 1017.5
7:54 pm EDT N 0.0 10.00 Fair -- 71.0 63.0 76% NA NA 30.07 1017.6
6:54 pm EDT N 0.0 10.00 Fair -- 73.0 61.0 66% NA NA 30.07 1017.7
5:54 pm EDT N 0.0 10.00 Fair -- 76.0 62.1 62% NA NA 30.08 1017.6
4:54 pm EDT N 0.0 10.00 Fair -- 78.0 60.1 54% NA NA 30.08 1017.9
3:54 pm EDT 3.5 10.00 Fair -- 78.0 60.1 54% NA NA 30.09 1018.1
2:54 pm EDT 4.6 10.00 A Few Clouds -- 78.0 61.0 56% NA NA 30.11 1018.6
1:54 pm EDT N 0.0 10.00 A Few Clouds -- 77.0 60.1 56% NA NA 30.14 1019.8
12:54 pm EDT 4.6 10.00 Partly Cloudy -- 76.0 61.0 60% NA NA 30.17 1020.8

Regional Weather Observation


Pickens County Airport, SC (KLQK)

Fair
77.0 F

Anderson, Anderson County Airport, SC (KAND)

Fair
76.0 F

Macon County Airport, NC (K1A5)

Mostly Cloudy
68.0 F

Greenville Downtown Airport, SC (KGMU)

Fair
78.0 F

Greenville-Donaldson Center Airport, SC (KGYH)

Fair
77.0 F

Greer, Greenville-Spartanburg Airport, SC (KGSP)

Fair
79.0 F